Weather History for KOGA - March, 2013

Change the Weather History Date:

Tuesday, March 12, 2013

  Actual Average Record
Temperature  
Mean Temperature 34 °F -  
Max Temperature 42 °F 50 °F 81 °F (1972)
Min Temperature 25 °F 24 °F -4 °F (1956)
Degree Days  
Heating Degree Days 32    
Moisture  
Dew Point 20 °F    
Average Humidity 58    
Maximum Humidity 86    
Minimum Humidity 32    
Precipitation  
Precipitation 0.00 in - - ()
Sea Level Pressure  
Sea Level Pressure 30.22 in    
Wind  
Wind Speed 13 mph (NNW)    
Max Wind Speed 30 mph    
Max Gust Speed 33 mph    
Visibility 10 miles    
Events      
Averages and records for this station are not official NWS values.
T = Trace of Precipitation, MM = Missing Value Source: NWS Daily Summary

Daily Weather History Graph

Daily Weather History Graph

Search for Another Location

Airport or City:

Trip Planner

Search our weather history database for the weather conditions in past years. The results will help you decide how hot, cold, wet, or windy it might be!

Date:

Astronomy

Mar. 12, 2013 Rise Set
Actual Time 7:03 AM MDT 6:50 PM MDT
Civil Twilight 6:35 AM MDT 7:18 PM MDT
Nautical Twilight 6:03 AM MDT 7:50 PM MDT
Astronomical Twilight 5:31 AM MDT 8:22 PM MDT
Moon 7:10 AM MDT (3/12) 8:09 PM MDT (3/12)
Length of Visible Light 12h 42m
Length of Day
11h 47m
New Moon, 1% of the Moon is Illuminated
Mar 12
New Moon
Mar 19
First Quarter
Mar 27
Full
Apr 2
Last Quarter
Apr 10
New

Hourly Weather History & Observations

Time (MDT) Temp. Windchill Dew Point Humidity Pressure Visibility Wind Dir Wind Speed Gust Speed Precip Events Conditions
12:15 AM 36.5 °F 28.7 °F 28.4 °F 72% 30.13 in 10.0 mi NW 11.5 mph - N/A   Overcast
12:35 AM 35.8 °F 30.1 °F 28.8 °F 76% 30.13 in 10.0 mi NW 6.9 mph - N/A   Overcast
12:55 AM 34.9 °F 30.8 °F 28.2 °F 77% 30.12 in 10.0 mi NW 4.6 mph - N/A   Scattered Clouds
1:15 AM 32.7 °F 28.3 °F 28.4 °F 84% 30.13 in 10.0 mi NNW 4.6 mph - N/A   Mostly Cloudy
1:35 AM 32.5 °F 24.8 °F 28.0 °F 83% 30.13 in 10.0 mi NNW 9.2 mph - N/A   Scattered Clouds
1:55 AM 32.9 °F 26.7 °F 28.4 °F 84% 30.14 in 10.0 mi NNW 6.9 mph - N/A   Mostly Cloudy
2:15 AM 32.7 °F 25.0 °F 28.2 °F 83% 30.15 in 10.0 mi NNW 9.2 mph - N/A   Mostly Cloudy
2:35 AM 32.2 °F 23.8 °F 28.2 °F 85% 30.15 in 10.0 mi NW 10.4 mph - N/A   Mostly Cloudy
2:55 AM 32.0 °F 23.6 °F 28.2 °F 86% 30.15 in 10.0 mi NW 10.4 mph - N/A   Mostly Cloudy
3:15 AM 32.0 °F 24.8 °F 28.0 °F 85% 30.16 in 10.0 mi NW 8.1 mph - N/A   Overcast
3:35 AM 33.4 °F 24.3 °F 26.8 °F 77% 30.16 in 10.0 mi NW 12.7 mph - N/A   Mostly Cloudy
3:55 AM 32.9 °F 23.2 °F 24.8 °F 72% 30.17 in 10.0 mi NW 13.8 mph - N/A   Scattered Clouds
4:15 AM 32.9 °F 24.1 °F 23.0 °F 67% 30.17 in 10.0 mi NW 11.5 mph - N/A   Mostly Cloudy
4:35 AM 32.4 °F 23.5 °F 23.0 °F 68% 30.18 in 10.0 mi NW 11.5 mph 17.3 mph N/A   Mostly Cloudy
4:55 AM 32.4 °F 23.0 °F 22.5 °F 67% 30.18 in 10.0 mi NW 12.7 mph - N/A   Overcast
5:15 AM 32.5 °F 21.5 °F 21.9 °F 65% 30.19 in 10.0 mi NW 17.3 mph 23.0 mph N/A   Overcast
5:35 AM 32.2 °F 20.7 °F 21.9 °F 66% 30.20 in 10.0 mi NW 18.4 mph 23.0 mph N/A   Overcast
5:55 AM 32.0 °F 21.2 °F 20.1 °F 62% 30.20 in 10.0 mi NNW 16.1 mph 23.0 mph N/A   Mostly Cloudy
6:15 AM 31.8 °F 19.6 °F 18.9 °F 59% 30.20 in 10.0 mi NNW 20.7 mph - N/A   Scattered Clouds
6:35 AM 31.5 °F 19.1 °F 19.0 °F 60% 30.20 in 10.0 mi NNW 20.7 mph 26.5 mph N/A   Clear
6:55 AM 31.1 °F 18.3 °F 18.7 °F 60% 30.20 in 10.0 mi NNW 21.9 mph 29.9 mph N/A   Clear
7:35 AM 30.7 °F 16.9 °F 17.6 °F 58% 30.22 in 10.0 mi NNW 25.3 mph 28.8 mph N/A   Clear
7:55 AM 31.1 °F 17.4 °F 18.3 °F 59% 30.22 in 10.0 mi NNW 25.3 mph 31.1 mph N/A   Clear
8:15 AM 31.6 °F 17.1 °F 19.0 °F 60% 30.23 in 10.0 mi NW 29.9 mph 33.4 mph N/A   Clear
8:35 AM 32.0 °F 18.1 °F 19.2 °F 59% 30.23 in 10.0 mi NNW 27.6 mph 33.4 mph N/A   Clear
8:55 AM 32.4 °F 19.1 °F 19.2 °F 58% 30.25 in 10.0 mi NNW 25.3 mph 32.2 mph N/A   Clear
9:15 AM 32.9 °F 19.6 °F 18.3 °F 55% 30.25 in 10.0 mi NNW 26.5 mph 33.4 mph N/A   Clear
9:35 AM 33.4 °F 20.3 °F 18.7 °F 55% 30.26 in 10.0 mi NNW 26.5 mph 33.4 mph N/A   Clear
9:55 AM 34.0 °F 21.5 °F 18.7 °F 54% 30.27 in 10.0 mi NNW 24.2 mph 32.2 mph N/A   Clear
10:15 AM 34.9 °F 23.6 °F 18.7 °F 52% 30.27 in 10.0 mi NNW 20.7 mph 28.8 mph N/A   Clear
10:35 AM 35.6 °F 24.2 °F 17.6 °F 48% 30.28 in 10.0 mi NW 21.9 mph 26.5 mph N/A   Clear
10:55 AM 36.1 °F 24.4 °F 15.4 °F 43% 30.28 in 10.0 mi NNW 24.2 mph - N/A   Clear
11:15 AM 36.9 °F 27.1 °F 16.9 °F 44% 30.29 in 10.0 mi NNW 17.3 mph 24.2 mph N/A   Clear
11:35 AM 37.4 °F 26.1 °F 15.8 °F 41% 30.28 in 10.0 mi NW 24.2 mph 27.6 mph N/A   Clear
11:55 AM 37.9 °F 27.6 °F 16.0 °F 41% 30.28 in 10.0 mi NNW 20.7 mph 26.5 mph N/A   Clear
12:15 PM 38.3 °F 28.7 °F 15.3 °F 39% 30.28 in 10.0 mi NNW 18.4 mph - N/A   Clear
12:35 PM 38.8 °F 29.7 °F 15.1 °F 38% 30.28 in 10.0 mi NW 17.3 mph 24.2 mph N/A   Clear
12:55 PM 39.2 °F 29.8 °F 14.4 °F 36% 30.27 in 10.0 mi NW 18.4 mph 25.3 mph N/A   Clear
1:15 PM 39.7 °F 30.0 °F 13.8 °F 35% 30.27 in 10.0 mi NNW 20.7 mph 27.6 mph N/A   Clear
1:35 PM 40.1 °F 30.7 °F 14.2 °F 35% 30.26 in 10.0 mi NNW 19.6 mph 27.6 mph N/A   Clear
1:55 PM 40.5 °F 31.8 °F 13.5 °F 33% 30.25 in 10.0 mi NNW 17.3 mph 25.3 mph N/A   Clear
2:15 PM 41.2 °F 31.9 °F 13.6 °F 33% 30.24 in 10.0 mi NNW 20.7 mph 26.5 mph N/A   Clear
2:35 PM 41.4 °F 32.7 °F 13.6 °F 32% 30.24 in 10.0 mi NNW 18.4 mph 28.8 mph N/A   Clear
2:55 PM 41.9 °F 32.8 °F 14.4 °F 33% 30.23 in 10.0 mi North 20.7 mph - N/A   Clear
3:15 PM 41.5 °F 33.2 °F 15.8 °F 35% 30.23 in 10.0 mi North 17.3 mph 24.2 mph N/A   Clear
3:35 PM 42.4 °F 35.7 °F 16.3 °F 35% 30.23 in 10.0 mi NNW 12.7 mph 21.9 mph N/A   Clear
3:55 PM 42.6 °F 35.6 °F 15.4 °F 33% 30.23 in 10.0 mi North 13.8 mph - N/A   Clear
4:15 PM 42.4 °F 35.0 °F 16.2 °F 35% 30.23 in 10.0 mi North 15.0 mph - N/A   Clear
4:35 PM 42.6 °F 35.2 °F 16.2 °F 34% 30.22 in 10.0 mi North 15.0 mph - N/A   Clear
4:55 PM 42.6 °F 35.6 °F 15.6 °F 34% 30.22 in 10.0 mi North 13.8 mph - N/A   Clear
5:15 PM 42.3 °F 35.9 °F 17.4 °F 37% 30.22 in 10.0 mi North 11.5 mph - N/A   Clear
5:35 PM 41.7 °F 35.6 °F 17.8 °F 38% 30.22 in 10.0 mi North 10.4 mph - N/A   Clear
5:55 PM 41.0 °F 33.9 °F 17.1 °F 38% 30.22 in 10.0 mi North 12.7 mph - N/A   Clear
6:15 PM 39.4 °F 36.1 °F 20.7 °F 47% 30.22 in 10.0 mi North 4.6 mph - N/A   Clear
6:35 PM 38.3 °F 34.8 °F 19.4 °F 47% 30.22 in 10.0 mi NNE 4.6 mph - N/A   Clear
6:55 PM 34.5 °F 28.6 °F 21.9 °F 60% 30.23 in 10.0 mi North 6.9 mph - N/A   Clear
7:15 PM 32.5 °F 28.1 °F 21.2 °F 63% 30.23 in 10.0 mi NNE 4.6 mph - N/A   Clear
7:35 PM 31.8 °F 28.5 °F 21.4 °F 65% 30.24 in 10.0 mi North 3.5 mph - N/A   Clear
7:55 PM 31.1 °F - 20.1 °F 64% 30.24 in 10.0 mi Calm Calm - N/A   Clear
8:15 PM 32.0 °F - 19.9 °F 61% 30.25 in 10.0 mi Calm Calm - N/A   Clear
8:35 PM 29.3 °F - 21.2 °F 72% 30.26 in 10.0 mi Calm Calm - N/A   Clear
8:55 PM 28.4 °F - 21.7 °F 76% 30.26 in 10.0 mi Calm Calm - N/A   Clear
9:15 PM 27.5 °F - 21.0 °F 77% 30.27 in 10.0 mi Calm Calm - N/A   Clear
9:35 PM 27.5 °F - 21.6 °F 78% 30.27 in 10.0 mi Calm Calm - N/A   Clear
9:55 PM 25.0 °F - 20.1 °F 82% 30.27 in 10.0 mi Calm Calm - N/A   Clear
10:15 PM 26.8 °F - 20.1 °F 76% 30.28 in 10.0 mi Calm Calm - N/A   Clear
10:35 PM 26.4 °F - 20.5 °F 78% 30.28 in 10.0 mi Calm Calm - N/A   Clear
10:55 PM 26.8 °F - 20.7 °F 78% 30.29 in 10.0 mi Calm Calm - N/A   Clear
11:55 PM 27.0 °F - 22.8 °F 84% 30.27 in 10.0 mi Calm Calm - N/A   Mostly Cloudy